Location: Boissi�res
(45.2500°N, 2.3667°E)
Time: 15:13:45
(UTC+00:00)

Cosmos 1503 Rocket - Pass Details

Date: 03 March 2021
Orbit: 753 x 790 km, 74.0° (Epoch: 22 April)

Event Time Altitude Azimuth Distance (km) Brightness Sun altitude
Rises 18:29:01 0° 342° (NNW) 3,230 7.5 -9.3°
Reaches altitude 10° 18:31:28 10° 347° (NNW) 2,296 6.7 -9.7°
Maximum altitude 18:36:34 55° 65° (ENE) 908 4.1 -10.6°
Drops below altitude 10° 18:41:36 10° 143° (SE) 2,271 6.1 -11.5°
Sets 18:44:00 0° 148° (SSE) 3,192 6.9 -11.9°
